TK981 LTCE-LTCD

Flight info

Callsign TK981
Flight time 0h 33m
Altitude 14000
Route ERZ DCT ERN
Aircraft C408/M-SDFGRY/S

Departure

Time 2026-04-24 04:19
Airport Erzurum International Airport (LTCE)

Arrival

Time 2026-04-24 04:52
Airport Erzincan Airport (LTCD)
Time Latitude Longitude Altitude Speed Heading
2026-04-24 04:12 39.96043 41.18056 5770 ft 0 kts 282°
2026-04-24 04:14 39.96043 41.18052 5770 ft 2 kts 279°
2026-04-24 04:15 39.96041 41.18007 5769 ft 6 kts 253°
2026-04-24 04:15 39.96028 41.17972 5769 ft 3 kts 235°
2026-04-24 04:15 39.96023 41.17963 5769 ft 0 kts 234°
2026-04-24 04:16 39.96021 41.17960 5769 ft 2 kts 234°
2026-04-24 04:16 39.96001 41.17933 5769 ft 5 kts 217°
2026-04-24 04:16 39.95980 41.17918 5770 ft 6 kts 204°
2026-04-24 04:16 39.95929 41.17904 5772 ft 8 kts 181°
2026-04-24 04:17 39.95851 41.17907 5775 ft 10 kts 178°
2026-04-24 04:17 39.95800 41.17906 5775 ft 10 kts 195°
2026-04-24 04:17 39.95762 41.17859 5774 ft 5 kts 257°
2026-04-24 04:17 39.95762 41.17851 5774 ft 0 kts 271°
2026-04-24 04:18 39.95762 41.17807 5774 ft 21 kts 268°
2026-04-24 04:18 39.95744 41.17378 5771 ft 71 kts 269°
2026-04-24 04:18 39.95639 41.16602 5811 ft 95 kts 258°
2026-04-24 04:19 39.95650 41.15975 5817 ft 118 kts 271°
2026-04-24 04:19 39.95736 41.14896 6159 ft 121 kts 273°
2026-04-24 04:19 39.95851 41.13750 6394 ft 132 kts 274°
2026-04-24 04:19 39.96005 41.12573 6806 ft 131 kts 275°
2026-04-24 04:20 39.96165 41.11404 7228 ft 130 kts 274°
2026-04-24 04:20 39.96328 41.10250 7597 ft 129 kts 274°
2026-04-24 04:20 39.96174 41.09172 7940 ft 121 kts 236°
2026-04-24 04:20 39.95685 41.08258 8299 ft 124 kts 234°
2026-04-24 04:21 39.95198 41.07335 8641 ft 125 kts 235°
2026-04-24 04:21 39.94714 41.06383 8998 ft 125 kts 235°
2026-04-24 04:21 39.94254 41.05426 9345 ft 123 kts 235°
2026-04-24 04:21 39.93806 41.04497 9687 ft 121 kts 235°
2026-04-24 04:22 39.93364 41.03578 10017 ft 119 kts 236°
2026-04-24 04:22 39.92921 41.02669 10328 ft 118 kts 236°
2026-04-24 04:22 39.92475 41.01773 10639 ft 118 kts 236°
2026-04-24 04:22 39.92021 41.00882 10902 ft 120 kts 235°
2026-04-24 04:23 39.91547 40.99968 11131 ft 126 kts 235°
2026-04-24 04:23 39.91047 40.99016 11363 ft 129 kts 235°
2026-04-24 04:23 39.90535 40.98049 11593 ft 130 kts 235°
2026-04-24 04:23 39.90017 40.97078 11827 ft 130 kts 235°
2026-04-24 04:24 39.89494 40.96110 12053 ft 130 kts 235°
2026-04-24 04:24 39.88981 40.95152 12282 ft 128 kts 235°
2026-04-24 04:24 39.88464 40.94212 12502 ft 125 kts 236°
2026-04-24 04:24 39.87947 40.93310 12747 ft 126 kts 236°
2026-04-24 04:25 39.87415 40.92389 12980 ft 131 kts 235°
2026-04-24 04:25 39.86861 40.91431 13231 ft 134 kts 235°
2026-04-24 04:25 39.86291 40.90455 13476 ft 135 kts 235°
2026-04-24 04:25 39.85726 40.89488 13721 ft 134 kts 235°
2026-04-24 04:26 39.85158 40.88522 13875 ft 136 kts 235°
2026-04-24 04:26 39.84573 40.87514 13879 ft 142 kts 235°
2026-04-24 04:26 39.83976 40.86485 13885 ft 146 kts 235°
2026-04-24 04:26 39.83351 40.85418 13875 ft 151 kts 235°
2026-04-24 04:27 39.82714 40.84317 13878 ft 152 kts 235°
2026-04-24 04:27 39.82089 40.83202 13881 ft 152 kts 235°
2026-04-24 04:27 39.81454 40.82075 13886 ft 156 kts 236°
2026-04-24 04:27 39.80803 40.80933 13878 ft 157 kts 235°
2026-04-24 04:28 39.80163 40.79815 13888 ft 156 kts 235°
2026-04-24 04:28 39.79506 40.78661 13890 ft 159 kts 235°
2026-04-24 04:28 39.78837 40.77492 13884 ft 162 kts 235°
2026-04-24 04:28 39.78165 40.76313 13883 ft 162 kts 235°
2026-04-24 04:29 39.77499 40.75147 13880 ft 162 kts 235°
2026-04-24 04:29 39.76825 40.73968 13881 ft 162 kts 235°
2026-04-24 04:29 39.76136 40.72795 13879 ft 163 kts 232°
2026-04-24 04:29 39.75415 40.71658 13879 ft 163 kts 234°
2026-04-24 04:30 39.74724 40.70499 13882 ft 161 kts 234°
2026-04-24 04:30 39.74068 40.69343 13880 ft 160 kts 240°
2026-04-24 04:30 39.73669 40.67990 13880 ft 161 kts 250°
2026-04-24 04:30 39.73366 40.66588 13874 ft 161 kts 251°
2026-04-24 04:31 39.73071 40.65176 13875 ft 162 kts 251°
2026-04-24 04:31 39.72779 40.63779 13881 ft 163 kts 251°
2026-04-24 04:31 39.72473 40.62347 13873 ft 165 kts 251°
2026-04-24 04:31 39.72166 40.60893 13874 ft 167 kts 251°
2026-04-24 04:32 39.71862 40.59427 13873 ft 168 kts 251°
2026-04-24 04:32 39.71558 40.57957 13875 ft 168 kts 251°
2026-04-24 04:32 39.71256 40.56504 13869 ft 169 kts 251°
2026-04-24 04:32 39.70949 40.55033 13871 ft 168 kts 251°
2026-04-24 04:33 39.70642 40.53563 13864 ft 169 kts 251°
2026-04-24 04:33 39.70333 40.52089 13866 ft 168 kts 251°
2026-04-24 04:33 39.70027 40.50623 13860 ft 167 kts 251°
2026-04-24 04:33 39.69721 40.49161 13867 ft 169 kts 251°
2026-04-24 04:34 39.69411 40.47708 13858 ft 167 kts 252°
2026-04-24 04:34 39.69096 40.46297 13870 ft 161 kts 251°
2026-04-24 04:34 39.68794 40.44875 13872 ft 164 kts 251°
2026-04-24 04:34 39.68496 40.43436 13871 ft 166 kts 251°
2026-04-24 04:35 39.68195 40.41984 13871 ft 167 kts 251°
2026-04-24 04:35 39.67893 40.40530 13869 ft 166 kts 251°
2026-04-24 04:35 39.67596 40.39100 13869 ft 166 kts 251°
2026-04-24 04:35 39.67297 40.37657 13868 ft 166 kts 251°
2026-04-24 04:36 39.66999 40.36214 13871 ft 165 kts 251°
2026-04-24 04:36 39.66699 40.34771 13866 ft 165 kts 251°
2026-04-24 04:36 39.66392 40.33338 13866 ft 164 kts 251°
2026-04-24 04:36 39.66086 40.31902 13870 ft 166 kts 251°
2026-04-24 04:37 39.65784 40.30449 13870 ft 167 kts 251°
2026-04-24 04:37 39.65482 40.28980 13865 ft 169 kts 251°
2026-04-24 04:37 39.65192 40.27491 13864 ft 168 kts 251°
2026-04-24 04:37 39.64904 40.26015 13870 ft 169 kts 251°
2026-04-24 04:38 39.64598 40.24530 13871 ft 171 kts 251°
2026-04-24 04:38 39.64288 40.23039 13870 ft 171 kts 251°
2026-04-24 04:38 39.63900 40.21618 13862 ft 168 kts 236°
2026-04-24 04:38 39.63070 40.20545 13867 ft 170 kts 221°
2026-04-24 04:39 39.62061 40.19712 13868 ft 173 kts 216°
2026-04-24 04:39 39.61007 40.18927 13864 ft 176 kts 215°
2026-04-24 04:39 39.59940 40.18140 13863 ft 175 kts 215°
2026-04-24 04:39 39.58896 40.17367 13858 ft 171 kts 215°
2026-04-24 04:40 39.57869 40.16605 13859 ft 169 kts 215°
2026-04-24 04:40 39.56877 40.15794 13853 ft 166 kts 224°
2026-04-24 04:40 39.56161 40.14682 13867 ft 162 kts 234°
2026-04-24 04:40 39.55510 40.13475 13864 ft 164 kts 235°
2026-04-24 04:41 39.54863 40.12258 13858 ft 161 kts 235°
2026-04-24 04:41 39.54257 40.11032 13857 ft 163 kts 245°
2026-04-24 04:41 39.54276 40.09527 13852 ft 182 kts 281°
2026-04-24 04:41 39.54979 40.08098 13865 ft 191 kts 293°
2026-04-24 04:42 39.55614 40.06631 13871 ft 188 kts 284°
2026-04-24 04:42 39.56099 40.05058 13867 ft 187 kts 281°
2026-04-24 04:42 39.56548 40.03456 13868 ft 189 kts 281°
2026-04-24 04:42 39.56937 40.01858 13865 ft 189 kts 277°
2026-04-24 04:43 39.57322 40.00207 13722 ft 196 kts 279°
2026-04-24 04:43 39.57798 39.98494 13338 ft 207 kts 282°
2026-04-24 04:43 39.58324 39.96752 13008 ft 206 kts 283°
2026-04-24 04:43 39.58833 39.95018 12727 ft 203 kts 282°
2026-04-24 04:44 39.59324 39.93304 12465 ft 203 kts 283°
2026-04-24 04:44 39.59820 39.91623 12202 ft 202 kts 282°
2026-04-24 04:44 39.60308 39.89918 11832 ft 201 kts 283°
2026-04-24 04:44 39.60807 39.88216 11290 ft 203 kts 283°
2026-04-24 04:45 39.61303 39.86509 10706 ft 197 kts 284°
2026-04-24 04:45 39.61785 39.84852 10214 ft 189 kts 284°
2026-04-24 04:45 39.62239 39.83298 10007 ft 182 kts 284°
2026-04-24 04:45 39.62678 39.81783 9731 ft 181 kts 284°
2026-04-24 04:46 39.63132 39.80200 9079 ft 193 kts 283°
2026-04-24 04:46 39.63617 39.78541 8408 ft 197 kts 285°
2026-04-24 04:46 39.64096 39.76892 7960 ft 189 kts 287°
2026-04-24 04:46 39.64540 39.75362 7679 ft 179 kts 289°
2026-04-24 04:47 39.64971 39.73871 7405 ft 167 kts 291°
2026-04-24 04:47 39.65340 39.72599 7118 ft 138 kts 290°
2026-04-24 04:47 39.65654 39.71524 6851 ft 120 kts 289°
2026-04-24 04:47 39.65954 39.70493 6552 ft 123 kts 288°
2026-04-24 04:48 39.66251 39.69466 6324 ft 115 kts 286°
2026-04-24 04:48 39.66527 39.68517 6063 ft 111 kts 287°
2026-04-24 04:48 39.66797 39.67579 5794 ft 111 kts 287°
2026-04-24 04:48 39.67064 39.66656 5538 ft 111 kts 287°
2026-04-24 04:49 39.67335 39.65713 5292 ft 111 kts 287°
2026-04-24 04:49 39.67608 39.64769 5044 ft 111 kts 286°
2026-04-24 04:49 39.67880 39.63837 4799 ft 112 kts 285°
2026-04-24 04:49 39.68155 39.62876 4756 ft 115 kts 285°
2026-04-24 04:50 39.68444 39.61905 4762 ft 120 kts 286°
2026-04-24 04:50 39.68742 39.60864 4765 ft 122 kts 288°
2026-04-24 04:50 39.69041 39.59824 4761 ft 129 kts 289°
2026-04-24 04:50 39.69374 39.58709 4739 ft 134 kts 289°
2026-04-24 04:51 39.69671 39.57602 4518 ft 119 kts 285°
2026-04-24 04:51 39.69927 39.56640 4222 ft 107 kts 290°
2026-04-24 04:51 39.70196 39.55817 3990 ft 89 kts 290°
2026-04-24 04:51 39.70395 39.55074 3871 ft 89 kts 292°
2026-04-24 04:52 39.70615 39.54349 3797 ft 85 kts 290°
2026-04-24 04:52 39.70822 39.53649 3770 ft 72 kts 290°
2026-04-24 04:52 39.70963 39.53172 3779 ft 56 kts 291°
2026-04-24 04:52 39.71087 39.52763 3774 ft 40 kts 291°
2026-04-24 04:53 39.71158 39.52505 3778 ft 30 kts 290°
2026-04-24 04:53 39.71240 39.52225 3781 ft 36 kts 291°
2026-04-24 04:53 39.71288 39.52076 3776 ft 14 kts 293°
2026-04-24 04:53 39.71374 39.52026 3777 ft 18 kts 21°
2026-04-24 04:54 39.71509 39.52101 3784 ft 23 kts 19°
2026-04-24 04:54 39.71560 39.52118 3778 ft 7 kts
2026-04-24 04:54 39.71617 39.52134 3778 ft 10 kts
2026-04-24 04:54 39.71628 39.52159 3784 ft 4 kts 144°
2026-04-24 04:55 39.71620 39.52162 3780 ft 0 kts 169°
2026-04-24 04:55 39.65727 39.71277 6773 ft 121 kts 288°
2026-04-24 04:55 39.70061 39.56224 4105 ft 99 kts 292°
2026-04-24 04:55 39.70290 39.55458 3927 ft 87 kts 287°
2026-04-24 04:56 39.70509 39.54723 3818 ft 88 kts 290°
2026-04-24 04:56 39.70720 39.54000 3772 ft 85 kts 290°
2026-04-24 04:56 39.70895 39.53398 3769 ft 52 kts 291°
2026-04-24 04:56 39.70484 39.54805 3826 ft 89 kts 291°
2026-04-24 04:57 39.70698 39.54075 3774 ft 85 kts 290°
2026-04-24 04:57 39.70514 39.54706 3817 ft 84 kts 290°
2026-04-24 04:57 39.70731 39.53963 3761 ft 85 kts 291°
2026-04-24 04:57 39.70175 39.55886 4001 ft 92 kts 291°
2026-04-24 04:58 39.70371 39.55153 3887 ft 88 kts 290°
2026-04-24 04:58 39.70596 39.54416 3801 ft 85 kts 289°
2026-04-24 04:58 39.70806 39.53707 3769 ft 77 kts 290°
2026-04-24 04:58 39.70853 39.53543 3767 ft 55 kts 290°